����������;��������(kWh)
2016-04-18 00:00;74,75
2016-04-18 00:15;73
2016-04-18 00:30;73
2016-04-18 00:45;71,7
2016-04-18 01:00;72,9
2016-04-18 01:15;71,25
2016-04-18 01:30;71
2016-04-18 01:45;70,2
2016-04-18 02:00;71,85
2016-04-18 02:15;70,4
2016-04-18 02:30;70,1
2016-04-18 02:45;69,7
2016-04-18 03:00;69,4
2016-04-18 03:15;70,85
2016-04-18 03:30;69,7
2016-04-18 03:45;71,15
2016-04-18 04:00;73,9
2016-04-18 04:15;70,65
2016-04-18 04:30;72,9
2016-04-18 04:45;72,75
2016-04-18 05:00;71,8
2016-04-18 05:15;71,4
2016-04-18 05:30;73,4
2016-04-18 05:45;72,9
2016-04-18 06:00;75,85
2016-04-18 06:15;80,85
2016-04-18 06:30;83,1
2016-04-18 06:45;77,85
2016-04-18 07:00;75,1
2016-04-18 07:15;73,05
2016-04-18 07:30;72,4
2016-04-18 07:45;75,8
2016-04-18 08:00;80,6
2016-04-18 08:15;79,45
2016-04-18 08:30;82,45
2016-04-18 08:45;87,7
2016-04-18 09:00;96,4
2016-04-18 09:15;102,5
2016-04-18 09:30;106,6
2016-04-18 09:45;108,15
2016-04-18 10:00;112,35
2016-04-18 10:15;112,15
2016-04-18 10:30;116,15
2016-04-18 10:45;121,45
2016-04-18 11:00;118,05
2016-04-18 11:15;124
2016-04-18 11:30;131,4
2016-04-18 11:45;134,1
2016-04-18 12:00;137,9
2016-04-18 12:15;136,2
2016-04-18 12:30;139,6
2016-04-18 12:45;141,8
2016-04-18 13:00;151,8
2016-04-18 13:15;148,7
2016-04-18 13:30;150,3
2016-04-18 13:45;148,9
2016-04-18 14:00;143,1
2016-04-18 14:15;144,25
2016-04-18 14:30;142,65
2016-04-18 14:45;138,6
2016-04-18 15:00;136,1
2016-04-18 15:15;135,6
2016-04-18 15:30;132,35
2016-04-18 15:45;130,35
2016-04-18 16:00;129,3
2016-04-18 16:15;124,65
2016-04-18 16:30;119,3
2016-04-18 16:45;118,15
2016-04-18 17:00;117,15
2016-04-18 17:15;108,75
2016-04-18 17:30;105,5
2016-04-18 17:45;107,05
2016-04-18 18:00;105,2
2016-04-18 18:15;105,05
2016-04-18 18:30;103,9
2016-04-18 18:45;105,85
2016-04-18 19:00;103,55
2016-04-18 19:15;104,45
2016-04-18 19:30;109,3
2016-04-18 19:45;105,45
2016-04-18 20:00;103,15
2016-04-18 20:15;108,15
2016-04-18 20:30;107,9
2016-04-18 20:45;103,3
2016-04-18 21:00;98,05
2016-04-18 21:15;93,05
2016-04-18 21:30;93,05
2016-04-18 21:45;88,55
2016-04-18 22:00;87,65
2016-04-18 22:15;83,95
2016-04-18 22:30;83
2016-04-18 22:45;81,9
2016-04-18 23:00;81,1
2016-04-18 23:15;77,35
2016-04-18 23:30;76,95
2016-04-18 23:45;77,6
2016-04-19 00:00;78,3
2016-04-19 00:15;75,9
2016-04-19 00:30;74,15
2016-04-19 00:45;74,2
2016-04-19 01:00;73,7
2016-04-19 01:15;71,85
2016-04-19 01:30;72
2016-04-19 01:45;71,75
2016-04-19 02:00;71,25
2016-04-19 02:15;72,6
2016-04-19 02:30;71,85
2016-04-19 02:45;70,95
2016-04-19 03:00;71,2
2016-04-19 03:15;72
2016-04-19 03:30;72,2
2016-04-19 03:45;72,35
2016-04-19 04:00;75,75
2016-04-19 04:15;73,1
2016-04-19 04:30;74,45
2016-04-19 04:45;75,45
2016-04-19 05:00;73,5
2016-04-19 05:15;73
2016-04-19 05:30;77,4
2016-04-19 05:45;80,2
2016-04-19 06:00;80,8
2016-04-19 06:15;83,9
2016-04-19 06:30;90,2
2016-04-19 06:45;84,2
2016-04-19 07:00;78
2016-04-19 07:15;76,7
2016-04-19 07:30;78
2016-04-19 07:45;83,3
2016-04-19 08:00;86,8
2016-04-19 08:15;89,55
2016-04-19 08:30;86,1
2016-04-19 08:45;87,15
2016-04-19 09:00;91,55
2016-04-19 09:15;100,7
2016-04-19 09:30;105,2
2016-04-19 09:45;113,05
2016-04-19 10:00;115,8
2016-04-19 10:15;124,35
2016-04-19 10:30;128,65
2016-04-19 10:45;130,9
2016-04-19 11:00;128,25
2016-04-19 11:15;129,55
2016-04-19 11:30;137,55
2016-04-19 11:45;138,45
2016-04-19 12:00;142,4
2016-04-19 12:15;142,6
2016-04-19 12:30;144,3
2016-04-19 12:45;147,75
2016-04-19 13:00;144,75
2016-04-19 13:15;148,15
2016-04-19 13:30;152,55
2016-04-19 13:45;152
2016-04-19 14:00;148,5
2016-04-19 14:15;150,15
2016-04-19 14:30;151,2
2016-04-19 14:45;151,55
2016-04-19 15:00;146,65
2016-04-19 15:15;140,2
2016-04-19 15:30;135,55
2016-04-19 15:45;133,7
2016-04-19 16:00;129,5
2016-04-19 16:15;124,55
2016-04-19 16:30;126,45
2016-04-19 16:45;125,7
2016-04-19 17:00;121,4
2016-04-19 17:15;117,45
2016-04-19 17:30;113,2
2016-04-19 17:45;114,05
2016-04-19 18:00;114,1
2016-04-19 18:15;111,9
2016-04-19 18:30;110
2016-04-19 18:45;108,8
2016-04-19 19:00;110,65
2016-04-19 19:15;110,9
2016-04-19 19:30;112,45
2016-04-19 19:45;111,4
2016-04-19 20:00;110,7
2016-04-19 20:15;111,25
2016-04-19 20:30;112,2
2016-04-19 20:45;110,45
2016-04-19 21:00;100,9
2016-04-19 21:15;97,7
2016-04-19 21:30;96,1
2016-04-19 21:45;88,8
2016-04-19 22:00;87,8
2016-04-19 22:15;85,2
2016-04-19 22:30;84,1
2016-04-19 22:45;79,75
2016-04-19 23:00;79,5
2016-04-19 23:15;75,9
2016-04-19 23:30;75,1
2016-04-19 23:45;74,95
2016-04-20 00:00;74,85
2016-04-20 00:15;74,9
2016-04-20 00:30;74,5
2016-04-20 00:45;76,7
2016-04-20 01:00;80
2016-04-20 01:15;78,2
2016-04-20 01:30;77,95
2016-04-20 01:45;79,05
2016-04-20 02:00;73,2
2016-04-20 02:15;71,1
2016-04-20 02:30;70,95
2016-04-20 02:45;70,65
2016-04-20 03:00;70,85
2016-04-20 03:15;71,3
2016-04-20 03:30;72,05
2016-04-20 03:45;70,75
2016-04-20 04:00;73,25
2016-04-20 04:15;71,75
2016-04-20 04:30;71,3
2016-04-20 04:45;73,2
2016-04-20 05:00;71,6
2016-04-20 05:15;71,5
2016-04-20 05:30;71,05
2016-04-20 05:45;74,7
2016-04-20 06:00;74,75
2016-04-20 06:15;75,4
2016-04-20 06:30;78,9
2016-04-20 06:45;80,7
2016-04-20 07:00;75,6
2016-04-20 07:15;74,6
2016-04-20 07:30;75,1
2016-04-20 07:45;80,1
2016-04-20 08:00;84,2
2016-04-20 08:15;90,8
2016-04-20 08:30;90,9
2016-04-20 08:45;95,7
2016-04-20 09:00;102,15
2016-04-20 09:15;106,05
2016-04-20 09:30;112,55
2016-04-20 09:45;115,7
2016-04-20 10:00;120,05
2016-04-20 10:15;125
2016-04-20 10:30;127,45
2016-04-20 10:45;132,85
2016-04-20 11:00;139,05
2016-04-20 11:15;150,45
2016-04-20 11:30;148,15
2016-04-20 11:45;149,15
2016-04-20 12:00;148,7
2016-04-20 12:15;148,75
2016-04-20 12:30;147,35
2016-04-20 12:45;153
2016-04-20 13:00;150,15
2016-04-20 13:15;156,3
2016-04-20 13:30;156,75
2016-04-20 13:45;152,85
2016-04-20 14:00;152,8
2016-04-20 14:15;151,95
2016-04-20 14:30;149,35
2016-04-20 14:45;147,75
2016-04-20 15:00;147,5
2016-04-20 15:15;148,95
2016-04-20 15:30;142
2016-04-20 15:45;138,3
2016-04-20 16:00;136,55
2016-04-20 16:15;133,2
2016-04-20 16:30;134,5
2016-04-20 16:45;128,7
2016-04-20 17:00;128,75
2016-04-20 17:15;121,8
2016-04-20 17:30;120,15
2016-04-20 17:45;120,1
2016-04-20 18:00;120,3
2016-04-20 18:15;116,55
2016-04-20 18:30;112,4
2016-04-20 18:45;113
2016-04-20 19:00;113,3
2016-04-20 19:15;111,75
2016-04-20 19:30;108,7
2016-04-20 19:45;105,85
2016-04-20 20:00;111,75
2016-04-20 20:15;110,9
2016-04-20 20:30;115
2016-04-20 20:45;112,95
2016-04-20 21:00;111,15
2016-04-20 21:15;110,4
2016-04-20 21:30;108,6
2016-04-20 21:45;99,9
2016-04-20 22:00;93,9
2016-04-20 22:15;94,55
2016-04-20 22:30;93,6
2016-04-20 22:45;88,05
2016-04-20 23:00;88,25
2016-04-20 23:15;85,5
2016-04-20 23:30;85,15
2016-04-20 23:45;84,1
2016-04-21 00:00;83,75
2016-04-21 00:15;82,55
2016-04-21 00:30;82,35
2016-04-21 00:45;80,45
2016-04-21 01:00;77,9
2016-04-21 01:15;76,7
2016-04-21 01:30;77,2
2016-04-21 01:45;77,25
2016-04-21 02:00;76,9
2016-04-21 02:15;82,4
2016-04-21 02:30;82,65
2016-04-21 02:45;82,45
2016-04-21 03:00;84,15
2016-04-21 03:15;76,8
2016-04-21 03:30;76,2
2016-04-21 03:45;76,15
2016-04-21 04:00;80,1
2016-04-21 04:15;78,65
2016-04-21 04:30;79,95
2016-04-21 04:45;80,05
2016-04-21 05:00;79,1
2016-04-21 05:15;78,5
2016-04-21 05:30;76,9
2016-04-21 05:45;80,8
2016-04-21 06:00;80,7
2016-04-21 06:15;83,1
2016-04-21 06:30;88,5
2016-04-21 06:45;85,65
2016-04-21 07:00;82,6
2016-04-21 07:15;82,8
2016-04-21 07:30;83
2016-04-21 07:45;90,55
2016-04-21 08:00;89,35
2016-04-21 08:15;90,05
2016-04-21 08:30;89,45
2016-04-21 08:45;95,15
2016-04-21 09:00;99,55
2016-04-21 09:15;106,55
2016-04-21 09:30;113,25
2016-04-21 09:45;113,55
2016-04-21 10:00;117,5
2016-04-21 10:15;122,5
2016-04-21 10:30;128,45
2016-04-21 10:45;126,65
2016-04-21 11:00;129,15
2016-04-21 11:15;125,9
2016-04-21 11:30;135,55
2016-04-21 11:45;133,85
2016-04-21 12:00;138,4
2016-04-21 12:15;132,15
2016-04-21 12:30;126,55
2016-04-21 12:45;135,25
2016-04-21 13:00;127,75
2016-04-21 13:15;134,45
2016-04-21 13:30;137,55
2016-04-21 13:45;136,8
2016-04-21 14:00;134,55
2016-04-21 14:15;130,3
2016-04-21 14:30;128,8
2016-04-21 14:45;126,5
2016-04-21 15:00;124,4
2016-04-21 15:15;119,6
2016-04-21 15:30;116,2
2016-04-21 15:45;117,75
2016-04-21 16:00;117,55
2016-04-21 16:15;115,5
2016-04-21 16:30;114,35
2016-04-21 16:45;109,3
2016-04-21 17:00;111,85
2016-04-21 17:15;105
2016-04-21 17:30;103,9
2016-04-21 17:45;100,6
2016-04-21 18:00;95,05
2016-04-21 18:15;93,85
2016-04-21 18:30;91
2016-04-21 18:45;92,3
2016-04-21 19:00;94,2
2016-04-21 19:15;96,9
2016-04-21 19:30;95,9
2016-04-21 19:45;94,1
2016-04-21 20:00;95,25
2016-04-21 20:15;95,5
2016-04-21 20:30;101,4
2016-04-21 20:45;102,2
2016-04-21 21:00;105,3
2016-04-21 21:15;104,95
2016-04-21 21:30;98
2016-04-21 21:45;90,6
2016-04-21 22:00;89,4
2016-04-21 22:15;86
2016-04-21 22:30;84,95
2016-04-21 22:45;81,75
2016-04-21 23:00;80,95
2016-04-21 23:15;78,95
2016-04-21 23:30;76,55
2016-04-21 23:45;76,65
2016-04-22 00:00;76,95
2016-04-22 00:15;76,45
2016-04-22 00:30;76,85
2016-04-22 00:45;74,8
2016-04-22 01:00;74,95
2016-04-22 01:15;72,55
2016-04-22 01:30;71,75
2016-04-22 01:45;72,7
2016-04-22 02:00;72,05
2016-04-22 02:15;70,25
2016-04-22 02:30;70,35
2016-04-22 02:45;69
2016-04-22 03:00;70,25
2016-04-22 03:15;70,65
2016-04-22 03:30;69,35
2016-04-22 03:45;69,7
2016-04-22 04:00;73,9
2016-04-22 04:15;72,45
2016-04-22 04:30;77,65
2016-04-22 04:45;79,7
2016-04-22 05:00;78,3
2016-04-22 05:15;77,2
2016-04-22 05:30;75,15
2016-04-22 05:45;72,7
2016-04-22 06:00;72,2
2016-04-22 06:15;77,5
2016-04-22 06:30;77,95
2016-04-22 06:45;76,45
2016-04-22 07:00;73,65
2016-04-22 07:15;73,6
2016-04-22 07:30;76,55
2016-04-22 07:45;82,65
2016-04-22 08:00;84,3
2016-04-22 08:15;80,6
2016-04-22 08:30;87,05
2016-04-22 08:45;89,85
2016-04-22 09:00;93,3
2016-04-22 09:15;96,35
2016-04-22 09:30;101,9
2016-04-22 09:45;103,75
2016-04-22 10:00;106,25
2016-04-22 10:15;113,3
2016-04-22 10:30;112,3
2016-04-22 10:45;110,85
2016-04-22 11:00;120,4
2016-04-22 11:15;115,05
2016-04-22 11:30;119,6
2016-04-22 11:45;118,95
2016-04-22 12:00;114,8
2016-04-22 12:15;125,5
2016-04-22 12:30;119,8
2016-04-22 12:45;120,6
2016-04-22 13:00;123,25
2016-04-22 13:15;121,6
2016-04-22 13:30;129,5
2016-04-22 13:45;130,55
2016-04-22 14:00;130,35
2016-04-22 14:15;133,05
2016-04-22 14:30;135,85
2016-04-22 14:45;131,85
2016-04-22 15:00;127,4
2016-04-22 15:15;130,45
2016-04-22 15:30;118,4
2016-04-22 15:45;115,25
2016-04-22 16:00;112,5
2016-04-22 16:15;100,7
2016-04-22 16:30;96,9
2016-04-22 16:45;94,05
2016-04-22 17:00;93,85
2016-04-22 17:15;90,9
2016-04-22 17:30;89,4
2016-04-22 17:45;97,5
2016-04-22 18:00;101,9
2016-04-22 18:15;101,9
2016-04-22 18:30;98,9
2016-04-22 18:45;100,25
2016-04-22 19:00;100,9
2016-04-22 19:15;96,2
2016-04-22 19:30;93,2
2016-04-22 19:45;83,2
2016-04-22 20:00;82,5
2016-04-22 20:15;85,15
2016-04-22 20:30;87,1
2016-04-22 20:45;90,45
2016-04-22 21:00;91,3
2016-04-22 21:15;86,65
2016-04-22 21:30;86,6
2016-04-22 21:45;85,8
2016-04-22 22:00;81,6
2016-04-22 22:15;84,5
2016-04-22 22:30;87,25
2016-04-22 22:45;84
2016-04-22 23:00;83,3
2016-04-22 23:15;82,25
2016-04-22 23:30;78,25
2016-04-22 23:45;75,55
2016-04-23 00:00;75,7
2016-04-23 00:15;73,65
2016-04-23 00:30;74,2
2016-04-23 00:45;74
2016-04-23 01:00;75,45
2016-04-23 01:15;72,65
2016-04-23 01:30;72,85
2016-04-23 01:45;72,2
2016-04-23 02:00;70,6
2016-04-23 02:15;70,55
2016-04-23 02:30;68,55
2016-04-23 02:45;67,75
2016-04-23 03:00;68,5
2016-04-23 03:15;67,4
2016-04-23 03:30;67,65
2016-04-23 03:45;67,6
2016-04-23 04:00;67,9
2016-04-23 04:15;68,95
2016-04-23 04:30;69,85
2016-04-23 04:45;69,1
2016-04-23 05:00;69
2016-04-23 05:15;68,2
2016-04-23 05:30;70
2016-04-23 05:45;68,7
2016-04-23 06:00;69,25
2016-04-23 06:15;70,55
2016-04-23 06:30;71,15
2016-04-23 06:45;68,45
2016-04-23 07:00;64,25
2016-04-23 07:15;65,55
2016-04-23 07:30;64,8
2016-04-23 07:45;64,7
2016-04-23 08:00;64,5
2016-04-23 08:15;64
2016-04-23 08:30;65,5
2016-04-23 08:45;65,05
2016-04-23 09:00;66,1
2016-04-23 09:15;66,3
2016-04-23 09:30;70,55
2016-04-23 09:45;74
2016-04-23 10:00;72,9
2016-04-23 10:15;88,2
2016-04-23 10:30;84,3
2016-04-23 10:45;80,5
2016-04-23 11:00;78,9
2016-04-23 11:15;68
2016-04-23 11:30;65,8
2016-04-23 11:45;65,05
2016-04-23 12:00;67,55
2016-04-23 12:15;68,55
2016-04-23 12:30;65,05
2016-04-23 12:45;72,4
2016-04-23 13:00;76,35
2016-04-23 13:15;77
2016-04-23 13:30;79,8
2016-04-23 13:45;83,95
2016-04-23 14:00;77,4
2016-04-23 14:15;81,8
2016-04-23 14:30;85,4
2016-04-23 14:45;82,4
2016-04-23 15:00;84
2016-04-23 15:15;87,25
2016-04-23 15:30;74,95
2016-04-23 15:45;72,65
2016-04-23 16:00;85,85
2016-04-23 16:15;78,2
2016-04-23 16:30;71,85
2016-04-23 16:45;71,75
2016-04-23 17:00;72,4
2016-04-23 17:15;67,8
2016-04-23 17:30;68,3
2016-04-23 17:45;80,75
2016-04-23 18:00;81,85
2016-04-23 18:15;80,1
2016-04-23 18:30;70,4
2016-04-23 18:45;73,25
2016-04-23 19:00;79,55
2016-04-23 19:15;80,6
2016-04-23 19:30;73,15
2016-04-23 19:45;68,1
2016-04-23 20:00;71,95
2016-04-23 20:15;73,4
2016-04-23 20:30;79,2
2016-04-23 20:45;83,95
2016-04-23 21:00;78
2016-04-23 21:15;79,7
2016-04-23 21:30;77,15
2016-04-23 21:45;79,7
2016-04-23 22:00;83,2
2016-04-23 22:15;82,6
2016-04-23 22:30;81,6
2016-04-23 22:45;82,55
2016-04-23 23:00;76,95
2016-04-23 23:15;71,5
2016-04-23 23:30;70,5
2016-04-23 23:45;70,7
2016-04-24 00:00;70,6
2016-04-24 00:15;70,3
2016-04-24 00:30;69,6
2016-04-24 00:45;69,75
2016-04-24 01:00;70,25
2016-04-24 01:15;69,05
2016-04-24 01:30;68,85
2016-04-24 01:45;68,45
2016-04-24 02:00;68,1
2016-04-24 02:15;69,35
2016-04-24 02:30;65,95
2016-04-24 02:45;65,45
2016-04-24 03:00;64,4
2016-04-24 03:15;64,85
2016-04-24 03:30;64,35
2016-04-24 03:45;63,15
2016-04-24 04:00;64,3
2016-04-24 04:15;63,5
2016-04-24 04:30;64,2
2016-04-24 04:45;65,85
2016-04-24 05:00;64,55
2016-04-24 05:15;63,95
2016-04-24 05:30;66,95
2016-04-24 05:45;64,35
2016-04-24 06:00;64,3
2016-04-24 06:15;64,1
2016-04-24 06:30;63,7
2016-04-24 06:45;59,5
2016-04-24 07:00;57,75
2016-04-24 07:15;57,5
2016-04-24 07:30;57
2016-04-24 07:45;58,4
2016-04-24 08:00;60,2
2016-04-24 08:15;64,75
2016-04-24 08:30;66,5
2016-04-24 08:45;67,3
2016-04-24 09:00;67,7
2016-04-24 09:15;67,3
2016-04-24 09:30;60,8
2016-04-24 09:45;58,3
2016-04-24 10:00;60,35
2016-04-24 10:15;61,2
2016-04-24 10:30;62,35
2016-04-24 10:45;63,65
2016-04-24 11:00;66,85
2016-04-24 11:15;60,1
2016-04-24 11:30;59,65
2016-04-24 11:45;61,6
2016-04-24 12:00;73,5
2016-04-24 12:15;68,05
2016-04-24 12:30;65,7
2016-04-24 12:45;67,2
2016-04-24 13:00;60,4
2016-04-24 13:15;60,1
2016-04-24 13:30;59,8
2016-04-24 13:45;59,3
2016-04-24 14:00;62,3
2016-04-24 14:15;70,5
2016-04-24 14:30;72,95
2016-04-24 14:45;61,05
2016-04-24 15:00;60,75
2016-04-24 15:15;68
2016-04-24 15:30;68,6
2016-04-24 15:45;69,4
2016-04-24 16:00;67,35
2016-04-24 16:15;61,85
2016-04-24 16:30;66,65
2016-04-24 16:45;68,45
2016-04-24 17:00;68,45
2016-04-24 17:15;64
2016-04-24 17:30;69,6
2016-04-24 17:45;69,7
2016-04-24 18:00;70,3
2016-04-24 18:15;66,85
2016-04-24 18:30;70
2016-04-24 18:45;67,65
2016-04-24 19:00;63,95
2016-04-24 19:15;65,1
2016-04-24 19:30;64
2016-04-24 19:45;63,65
2016-04-24 20:00;65,5
2016-04-24 20:15;67,45
2016-04-24 20:30;72,6
2016-04-24 20:45;73,55
2016-04-24 21:00;73,7
2016-04-24 21:15;74,05
2016-04-24 21:30;75,65
2016-04-24 21:45;74,25
2016-04-24 22:00;74,15
2016-04-24 22:15;73,15
2016-04-24 22:30;72,65
2016-04-24 22:45;72,35
2016-04-24 23:00;72,6
2016-04-24 23:15;70,95
2016-04-24 23:30;69,35
2016-04-24 23:45;70,45

